Location: New Plymouth
(39.0670°S, 174.0830°E)
Time: 23:32:39
(UTC+13:00)

ISS - Pass Details

Date: 28 January 2019
Orbit: 403 x 411 km, 51.6° (Epoch: 22 February)

Event Time Altitude Azimuth Distance (km) Brightness Sun altitude
Exits shadow 05:30:16 11° 343° (NNW) 1,425 -1.5 -10.7°
Maximum altitude 05:33:06 31° 46° (NE) 748 -2.4 -10.3°
Drops below altitude 10° 05:36:07 10° 110° (ESE) 1,493 0.5 -9.8°
Sets 05:38:21 0° 120° (ESE) 2,360 2.5 -9.4°
